STARLINK-4786 (55393 NORAD) Tracking and Keplerian Element Data

This shows tracking and keplerian element data for the satellite.

Feedback or suggestion? Click here.




ElementValue
Catalog55393
NameSTARLINK-4786
Epoch Orbit1514
Epoch Day126.87319341
Epoch Year2023
RAAN182.0609
Inclination69.9965
Eccentricity0.0003788
Argument of Perigee259.8809
Mean Anonmoly100.196
Mean Motion15.69940538
Decay Rate5.016E-05
L11 55393U 23014C 23126.87319341 .00005016 00000+0 43433-4 0 9997
L22 55393 69.9965 182.0609 0003788 259.8809 100.1960 15.69940538 15142



Live tracking and technical data element details for STARLINK-4786 (NORAD 55393). STARLINK-4786 can be tracked NOW for your location showing map with azimuth and elevation plus other details from your city location.







IsCatalogInMostPopularTable: catalog: 55393, numindb: -1

Insert: records affected: 1


GetName: 55393 STARLINK-4786

Hit Count: inserted at: Mon, 05 Jun 2023 20:01:42 GMT